Torna al catalogo

SL-12 DEB

AttivoHEO
NORAD 25798·DEBRIS·🇷🇺 Russia

Lanciato Jan 10, 1989 da Baikonur Cosmodrome

Loading…

Prossimi Passaggi (prossime 24 ore)

TLE

AggiornatoSource: Space-Track

Epoca: Sep 13, 2026, 04:26 UTC

1 25798U 89001K   26256.18477293  .00009053  00000-0  25034-1 0  9993
2 25798  65.1606 333.8891 4475771 217.3992 236.6286  6.11152383 16998

Traccia SL-12 DEB in tempo reale con AllMySat

Download on the App Store